Location: Nairn
(57.5833°N, 3.8667°W)
Time: 03:15:26
(UTC+00:00)

UNK - Pass Details

Date: 12 December 2021
Orbit: 666 x 686 km, 98.2° (Epoch: 22 January)

Event Time Altitude Azimuth Distance (km) Brightness Sun altitude
Exits shadow 18:02:35 - 6° (N) 2,873 6.8 -18.5°
Reaches altitude 10° 18:06:38 10° 327° (NNW) 2,109 6.5 -19.0°
Maximum altitude 18:07:07 10° 321° (NW) 2,098 6.6 -19.1°
Drops below altitude 10° 18:07:35 10° 315° (NW) 2,107 6.7 -19.1°
Sets 18:12:10 0° 272° (W) 3,013 8.5 -19.7°
